Weather History for Cincinnati, OH

Change the Weather History Date:

Sunday, April 27, 2014

  Actual Average Record
Temperature  
Mean Temperature 60 °F -  
Max Temperature 75 °F 70 °F 89 °F (1986)
Min Temperature 46 °F 46 °F 33 °F (2003)
Degree Days  
Heating Degree Days 4    
Growing Degree Days 10 (Base 50)    
Moisture  
Dew Point 43 °F    
Average Humidity 54    
Maximum Humidity 71    
Minimum Humidity 36    
Precipitation  
Precipitation 0.00 in - - ()
Sea Level Pressure  
Sea Level Pressure 29.95 in    
Wind  
Wind Speed 8 mph (ENE)    
Max Wind Speed 14 mph    
Max Gust Speed 16 mph    
Visibility 10 miles    
Events      
Averages and records for this station are not official NWS values.
T = Trace of Precipitation, MM = Missing Value Source: NWS Daily Summary

Daily Weather History Graph

Daily Weather History Graph

Search for Another Location

Airport:

Trip Planner

Search our weather history database for the weather conditions in past years. The results will help you decide how hot, cold, wet, or windy it might be!

Date:

Astronomy

Apr. 27, 2014 Rise Set
Actual Time 6:44 AM EDT 8:26 PM EDT
Civil Twilight 6:15 AM EDT 8:55 PM EDT
Nautical Twilight 5:41 AM EDT 9:29 PM EDT
Astronomical Twilight 5:04 AM EDT 10:06 PM EDT
Moon 5:43 AM EDT (4/27) 7:00 PM EDT (4/27)
Length of Visible Light 14h 39m
Length of Day
13h 42m
Waning Crescent, 3% of the Moon is Illuminated
Apr 27
Waning Crescent
Apr 29
New
May 6
First Quarter
May 14
Full
May 21
Last Quarter

Hourly Weather History & Observations

Time (EDT) Temp. Dew Point Humidity Pressure Visibility Wind Dir Wind Speed Gust Speed Precip Events Conditions
12:53 AM 55.9 °F 42.1 °F 60% 29.97 in 10.0 mi NE 5.8 mph - N/A   Clear
1:53 AM 54.0 °F 42.1 °F 64% 29.98 in 10.0 mi NE 5.8 mph - N/A   Clear
2:53 AM 50.0 °F 41.0 °F 71% 29.98 in 10.0 mi NE 6.9 mph - N/A   Clear
3:53 AM 50.0 °F 41.0 °F 71% 29.97 in 10.0 mi NE 6.9 mph - N/A   Clear
4:53 AM 48.9 °F 39.0 °F 69% 29.99 in 10.0 mi NE 5.8 mph - N/A   Clear
5:53 AM 50.0 °F 37.9 °F 63% 30.01 in 10.0 mi NE 10.4 mph - N/A   Scattered Clouds
6:53 AM 46.9 °F 37.0 °F 68% 30.03 in 10.0 mi NE 8.1 mph - N/A   Partly Cloudy
7:53 AM 48.2 °F 37.4 °F 66% 30.05 in 10.0 mi NE 10.4 mph - N/A   Clear
8:53 AM 51.1 °F 39.0 °F 63% 30.06 in 10.0 mi NE 8.1 mph - N/A   Clear
9:53 AM 55.9 °F 39.0 °F 53% 30.04 in 10.0 mi ENE 8.1 mph - N/A   Clear
10:53 AM 59.0 °F 41.0 °F 51% 30.03 in 10.0 mi East 9.2 mph - N/A   Clear
11:53 AM 62.6 °F 44.6 °F 52% 30.01 in 10.0 mi NE 13.8 mph - N/A   Clear
12:53 PM 66.9 °F 44.1 °F 44% 29.96 in 10.0 mi East 6.9 mph - N/A   Clear
1:53 PM 71.1 °F 46.0 °F 41% 29.94 in 10.0 mi East 5.8 mph 16.1 mph N/A   Clear
2:53 PM 73.0 °F 46.0 °F 38% 29.93 in 10.0 mi East 8.1 mph - N/A   Clear
3:53 PM 75.2 °F 46.4 °F 36% 29.90 in 10.0 mi East 6.9 mph - N/A   Clear
4:53 PM 75.0 °F 48.0 °F 38% 29.88 in 10.0 mi ENE 11.5 mph - N/A   Clear
5:53 PM 75.0 °F 46.9 °F 37% 29.87 in 10.0 mi East 8.1 mph - N/A   Clear
6:53 PM 73.0 °F 48.0 °F 41% 29.85 in 10.0 mi East 8.1 mph - N/A   Clear
7:53 PM 71.1 °F 46.0 °F 41% 29.86 in 10.0 mi ENE 8.1 mph - N/A   Clear
8:53 PM 66.0 °F 46.0 °F 48% 29.88 in 10.0 mi NE 6.9 mph - N/A   Clear
9:53 PM 64.0 °F 45.0 °F 50% 29.88 in 10.0 mi NE 6.9 mph - N/A   Clear
10:53 PM 62.1 °F 45.0 °F 53% 29.88 in 10.0 mi ENE 5.8 mph - N/A   Partly Cloudy
11:53 PM 57.0 °F 46.0 °F 67% 29.88 in 10.0 mi WSW 13.8 mph - N/A   Mostly Cloudy